Current Weather Conditions: station 62154

sailwx.info

Wind from 090 at 13 knots

Wave height 2.1 meters (6 feet), 5 second period

Air temperature 6.4° C
Dewpoint 0.8° C

Last reported at 2018-Nov-19 15:00 UTC.
Time now 2018-Nov-19 16:28 UTC

Location: N 56°24' E 002°12'.
View on Google Maps.

See reports from other nearby stations

  
Tides and Currents Weather Stations Pressure Air Temp Water Temp Dewpoint Dewpoint Depression Visibility Wind Speed Wind Dir Waves Ship Positions
date/time (UTC)wind fromknots sea level pressurealtimeterstation pressurevisibilityair tempwater tempwave heightnotes
2018-Nov-19 15:00 090 13 6.4 2.1
2018-Nov-19 14:00 100 18 6.7 2.0
2018-Nov-19 13:00 090 15 7.2
2018-Nov-19 12:00 090 15 7.4 2.1
2018-Nov-19 11:00 110 15 7.4 2.0
2018-Nov-19 10:00 100 14 7.4 1.7
2018-Nov-19 09:00 100 13 7.6 1.6
2018-Nov-19 08:00 100 14 7.5 1.5
2018-Nov-19 07:00 090 13 7.8 1.8
2018-Nov-19 06:00 090 12 7.9 1.6
2018-Nov-19 05:00 100 14 7.9 1.7
2018-Nov-19 04:00 100 11 8.1 1.6
2018-Nov-19 03:00 110 11 8.3 1.6
2018-Nov-19 02:00 110 9 8.5 1.8
2018-Nov-19 01:00 110 12 8.6 2.0
2018-Nov-19 00:00 110 12 8.6 1.7
2018-Nov-18 23:00 110 13 8.8 1.5
2018-Nov-18 22:00 110 13 8.6 1.3
2018-Nov-18 21:00 110 15 8.4 1.4
2018-Nov-18 20:00 100 13 8.8 1.3
2018-Nov-18 19:00 090 12 9.2 1.1
2018-Nov-18 18:00 110 9 8.8 1.2
2018-Nov-18 17:00 110 9 8.8 1.3
2018-Nov-18 16:00 120 11 8.4 1.2
2018-Nov-18 15:00 110 12 8.4 1.1
2018-Nov-18 14:00 110 11 8.6 1.1
2018-Nov-18 13:00 110 12 8.9 1.1
2018-Nov-18 12:00 100 13 9.5 1.0
2018-Nov-18 11:00 110 11 9.6 1.1
2018-Nov-18 10:00 110 12 9.5 1.2
2018-Nov-18 09:00 110 9 9.4 1.1
2018-Nov-18 08:00 120 8 9.2 1.1
2018-Nov-18 07:00 120 7 9.1 1.1
2018-Nov-18 06:00 120 7 9.0 1.2
2018-Nov-18 05:00 120 8 9.0 1.1
2018-Nov-18 04:00 120 8 9.0 1.2
2018-Nov-18 03:00 130 11 9.0 1.2
2018-Nov-18 02:00 130 12 9.0 1.4
2018-Nov-18 01:00 130 13 9.1 1.4
2018-Nov-18 00:00 130 13 9.1 1.4
2018-Nov-17 23:00 130 12 9.0 1.5
2018-Nov-17 22:00 140 14 9.0 1.4
2018-Nov-17 21:00 130 14 8.9 1.5
2018-Nov-17 20:00 140 15 8.9 1.5
2018-Nov-17 19:00 130 12 8.9 1.5
2018-Nov-17 18:00 130 14 9.0 1.4
2018-Nov-17 17:00 130 14 8.8 1.4
2018-Nov-17 16:00 140 14 9.0 1.4